Location: Oshawa
(43.9000°N, 78.8670°W)
Time: 20:22:47
(UTC-04:00)

CARTOSAT-1 - Visible Passes

Search period start: 24 April 2015 00:00
Search period end: 04 May 2015 00:00
Orbit: 617 x 620 km, 97.8° (Epoch: 24 April)

Date Brightness Start Highest point End Pass type
(mag) Time Alt. Az. Time Alt. Az. Time Alt. Az.
24 Apr 4.5 22:21:46 32° ENE 22:21:48 32° ENE 22:25:41 10° N visible
24 Apr 5.6 23:58:53 22° WNW 23:58:53 22° WNW 00:01:29 10° NW visible
25 Apr 4.0 22:38:37 47° ENE 22:38:37 47° ENE 22:42:40 10° N visible
26 Apr 6.0 00:15:45 16° WNW 00:15:45 16° WNW 00:17:36 10° NW visible
26 Apr 3.6 22:55:29 69° NE 22:55:29 69° NE 22:59:31 10° N visible
27 Apr 6.4 00:32:36 10° WNW 00:32:36 10° WNW 00:32:53 10° WNW visible
27 Apr 5.7 21:35:13 11° ENE 21:36:22 12° ENE 21:38:08 10° NE visible
27 Apr 3.7 23:12:20 69° NW 23:12:20 69° NW 23:16:17 10° NNW visible
28 Apr 5.3 21:52:04 16° E 21:52:58 17° ENE 21:55:52 10° NNE visible
28 Apr 4.3 23:29:12 46° WNW 23:29:12 46° WNW 23:32:57 10° NNW visible
29 Apr 4.9 22:08:56 23° E 22:09:36 25° ENE 22:13:09 10° NNE visible
29 Apr 5.0 23:46:04 31° W 23:46:04 31° W 23:49:29 10° NNW visible
30 Apr 4.3 22:25:49 34° E 22:26:16 35° ENE 22:30:14 10° N visible
01 May 5.5 00:02:56 21° W 00:02:56 21° W 00:05:49 10° NW visible
01 May 3.7 22:42:41 52° E 22:42:57 53° ENE 22:47:12 10° N visible
02 May 6.0 00:19:48 15° W 00:19:48 15° W 00:21:50 10° NW visible
02 May 3.4 22:59:34 79° ESE 22:59:42 81° ENE 23:04:02 10° N visible
03 May 5.6 21:39:19 11° E 21:40:51 13° ENE 21:43:01 10° NNE visible
03 May 3.7 23:16:26 67° WSW 23:16:29 67° WSW 23:20:48 10° NNW visible
